Weather History for Fort Wayne, IN

Change the Weather History Date:

Wednesday, September 19, 2012

  Actual Average Record
Temperature  
Mean Temperature 53 °F 63 °F  
Max Temperature 68 °F 75 °F 94 °F (1955)
Min Temperature 37 °F 51 °F 36 °F (1916)
Degree Days  
Heating Degree Days 12 4  
Month to date heating degree days 44 39  
Since 1 July heating degree days 49 51  
Cooling Degree Days 0 2  
Month to date cooling degree days 78 67  
Year to date cooling degree days 1105 784  
Growing Degree Days 2 (Base 50)    
Moisture  
Dew Point 38 °F    
Average Humidity 66    
Maximum Humidity 100    
Minimum Humidity 32    
Precipitation  
Precipitation 0.00 in 0.09 in 2.13 in (1997)
Month to date precipitation 2.86 1.78  
Year to date precipitation 21.72 28.62  
Snow  
Snow 0.00 in 0.00 in 0.00 in (2002)
Month to date snowfall 0.0 0.0  
Since 1 July snowfall 0.0 0.0  
Since 1 September snowfall 0.0  
Snow Depth 0.00 in    
Sea Level Pressure  
Sea Level Pressure 30.08 in    
Wind  
Wind Speed 7 mph (SSW)    
Max Wind Speed 18 mph    
Max Gust Speed 23 mph    
Visibility 10 miles    
Events      
T = Trace of Precipitation, MM = Missing Value Source: NWS Daily Summary

Daily Weather History Graph

Daily Weather History Graph

Search for Another Location

Airport:

Trip Planner

Search our weather history database for the weather conditions in past years. The results will help you decide how hot, cold, wet, or windy it might be!

Date:

Astronomy

Sep. 19, 2012 Rise Set
Actual Time 7:25 AM EDT 7:42 PM EDT
Civil Twilight 6:58 AM EDT 8:09 PM EDT
Nautical Twilight 6:25 AM EDT 8:41 PM EDT
Astronomical Twilight 5:52 AM EDT 9:14 PM EDT
Moon 11:37 AM EDT (9/19) 9:48 PM EDT (9/19)
Length of Visible Light 13h 11m
Length of Day
12h 16m
Waxing Crescent, 17% of the Moon is Illuminated
Sep 19
Waxing Crescent
Sep 22
First Quarter
Sep 29
Full
Oct 8
Last Quarter
Oct 15
New

Hourly Weather History & Observations

Time (EDT) Temp. Windchill Dew Point Humidity Pressure Visibility Wind Dir Wind Speed Gust Speed Precip Events Conditions
12:54 AM 45.0 °F 43.5 °F 41.0 °F 86% 30.05 in 10.0 mi WSW 3.5 mph - N/A   Mostly Cloudy
1:54 AM 43.0 °F - 37.9 °F 82% 30.07 in 10.0 mi Calm Calm - N/A   Partly Cloudy
2:54 AM 41.0 °F 39.0 °F 37.9 °F 89% 30.07 in 10.0 mi WSW 3.5 mph - N/A   Partly Cloudy
3:54 AM 39.9 °F - 37.9 °F 93% 30.07 in 10.0 mi Calm Calm - N/A   Partly Cloudy
4:54 AM 37.9 °F 35.5 °F 37.0 °F 97% 30.08 in 10.0 mi SSW 3.5 mph - N/A   Partly Cloudy
5:54 AM 39.0 °F 36.8 °F 37.0 °F 93% 30.09 in 10.0 mi SSW 3.5 mph - N/A   Clear
6:54 AM 39.0 °F 35.7 °F 37.0 °F 93% 30.11 in 10.0 mi SSW 4.6 mph - N/A   Clear
7:54 AM 39.0 °F - 37.0 °F 93% 30.13 in 10.0 mi Calm Calm - N/A   Scattered Clouds
8:54 AM 46.0 °F - 41.0 °F 83% 30.15 in 10.0 mi Calm Calm - N/A   Partly Cloudy
9:54 AM 51.1 °F - 43.0 °F 74% 30.15 in 10.0 mi Calm Calm - N/A   Partly Cloudy
10:54 AM 57.9 °F - 41.0 °F 53% 30.15 in 10.0 mi SW 4.6 mph - N/A   Scattered Clouds
11:54 AM 62.1 °F - 37.9 °F 41% 30.15 in 10.0 mi WSW 10.4 mph - N/A   Scattered Clouds
12:54 PM 64.0 °F - 36.0 °F 35% 30.14 in 10.0 mi SW 6.9 mph 16.1 mph N/A   Scattered Clouds
1:54 PM 64.9 °F - 36.0 °F 34% 30.13 in 10.0 mi WSW 9.2 mph 17.3 mph N/A   Partly Cloudy
2:54 PM 66.9 °F - 37.0 °F 33% 30.10 in 10.0 mi SW 12.7 mph 19.6 mph N/A   Scattered Clouds
3:54 PM 66.9 °F - 36.0 °F 32% 30.08 in 10.0 mi SSW 13.8 mph 19.6 mph N/A   Partly Cloudy
4:54 PM 66.9 °F - 37.0 °F 33% 30.06 in 10.0 mi SSW 13.8 mph 21.9 mph N/A   Scattered Clouds
5:54 PM 66.0 °F - 36.0 °F 33% 30.04 in 10.0 mi South 12.7 mph - N/A   Scattered Clouds
6:54 PM 64.0 °F - 36.0 °F 35% 30.03 in 10.0 mi South 11.5 mph - N/A   Scattered Clouds
7:54 PM 57.9 °F - 39.9 °F 51% 30.03 in 10.0 mi South 8.1 mph - N/A   Mostly Cloudy
8:54 PM 55.4 °F - 41.0 °F 58% 30.03 in 10.0 mi South 6.9 mph - N/A   Scattered Clouds
9:54 PM 55.0 °F - 39.9 °F 57% 30.02 in 10.0 mi South 9.2 mph - N/A   Scattered Clouds
10:54 PM 55.0 °F - 39.9 °F 57% 30.02 in 10.0 mi South 10.4 mph - N/A   Partly Cloudy
11:54 PM 53.1 °F - 41.0 °F 64% 30.01 in 10.0 mi South 9.2 mph - N/A   Clear